Dallas Love, TX

10:59 AM CDT on March 28, 2017 (GMT -0500)
Dallas Love

Weather History for KDAL - December, 2012

Change the Weather History Date:

Sunday, December 9, 2012

  Actual Average Record
Temperature  
Mean Temperature 56 °F -  
Max Temperature 69 °F 56 °F 71 °F (1996)
Min Temperature 42 °F 39 °F 16 °F (2005)
Degree Days  
Heating Degree Days 8    
Growing Degree Days 6 (Base 50)    
Moisture  
Dew Point 50 °F    
Average Humidity 68    
Maximum Humidity 90    
Minimum Humidity 34    
Precipitation  
Precipitation 0.00 in - - ()
Sea Level Pressure  
Sea Level Pressure 29.85 in    
Wind  
Wind Speed 11 mph (WNW)    
Max Wind Speed 21 mph    
Max Gust Speed 32 mph    
Visibility 8 miles    
Events      
Averages and records for this station are not official NWS values.
T = Trace of Precipitation, MM = Missing Value Source: NWS Daily Summary

Daily Weather History Graph

Daily Weather History Graph

Search for Another Location

Airport or City:

Trip Planner

Search our weather history database for the weather conditions in past years. The results will help you decide how hot, cold, wet, or windy it might be!

Date:

Astronomy

Dec. 09, 2012 Rise Set
Actual Time 7:18 AM CST 5:21 PM CST
Civil Twilight 6:51 AM CST 5:48 PM CST
Nautical Twilight 6:20 AM CST 6:19 PM CST
Astronomical Twilight 5:50 AM CST 6:49 PM CST
Moon 3:02 AM CST (12/9) 2:20 PM CST (12/9)
Length of Visible Light 10h 56m
Length of Day
10h 02m
Waning Crescent, 18% of the Moon is Illuminated
Dec 9
Waning Crescent
Dec 13
New
Dec 19
First Quarter
Dec 28
Full
Jan 4
Last Quarter

Hourly Weather History & Observations

Time (CST) Temp. Windchill Dew Point Humidity Pressure Visibility Wind Dir Wind Speed Gust Speed Precip Events Conditions
12:53 AM 64.0 °F - 61.0 °F 90% 29.76 in 9.0 mi South 5.8 mph - N/A   Clear
1:53 AM 66.0 °F - 61.0 °F 84% 29.76 in 9.0 mi South 8.1 mph - N/A   Scattered Clouds
2:53 AM 66.0 °F - 62.1 °F 87% 29.75 in 9.0 mi South 5.8 mph - N/A   Partly Cloudy
3:53 AM 68.0 °F - 63.0 °F 84% 29.76 in 9.0 mi South 6.9 mph - N/A   Mostly Cloudy
4:53 AM 69.1 °F - 64.0 °F 84% 29.76 in 8.0 mi SSW 6.9 mph - N/A   Overcast
5:11 AM 69.8 °F - 64.4 °F 83% 29.77 in 8.0 mi SW 9.2 mph - N/A   Overcast
5:42 AM 69.8 °F - 62.6 °F 78% 29.78 in 7.0 mi SSW 11.5 mph 19.6 mph N/A   Mostly Cloudy
5:53 AM 68.0 °F - 63.0 °F 84% 29.77 in 7.0 mi SSW 11.5 mph 21.9 mph N/A   Mostly Cloudy
6:53 AM 69.1 °F - 63.0 °F 81% 29.77 in 6.0 mi SSW 11.5 mph 21.9 mph N/A   Mostly Cloudy
7:53 AM 68.0 °F - 63.0 °F 84% 29.78 in 6.0 mi SSW 9.2 mph 17.3 mph N/A   Haze
8:53 AM 68.0 °F - 63.0 °F 84% 29.80 in 5.0 mi SW 6.9 mph - N/A   Mostly Cloudy
9:53 AM 69.1 °F - 63.0 °F 81% 29.83 in 6.0 mi WSW 5.8 mph - N/A   Haze
10:53 AM 69.1 °F - 57.0 °F 65% 29.83 in 9.0 mi West 10.4 mph - N/A   Mostly Cloudy
11:53 AM 66.0 °F - 54.0 °F 65% 29.84 in 9.0 mi NW 17.3 mph 20.7 mph N/A   Mostly Cloudy
12:53 PM 64.0 °F - 44.1 °F 48% 29.83 in 10.0 mi WNW 17.3 mph - N/A   Mostly Cloudy
1:53 PM 61.0 °F - 46.9 °F 60% 29.84 in 9.0 mi NW 17.3 mph 27.6 mph N/A   Mostly Cloudy
2:33 PM 60.8 °F - 46.4 °F 59% 29.86 in 9.0 mi NNW 16.1 mph 25.3 mph N/A   Mostly Cloudy
2:53 PM 59.0 °F - 46.9 °F 64% 29.86 in 8.0 mi NNW 17.3 mph - N/A   Mostly Cloudy
3:53 PM 57.0 °F - 46.9 °F 69% 29.86 in 9.0 mi NNW 20.7 mph 27.6 mph N/A   Mostly Cloudy
4:53 PM 57.0 °F - 45.0 °F 64% 29.88 in 6.0 mi NNW 15.0 mph 23.0 mph N/A   Haze
5:53 PM 55.9 °F - 44.1 °F 64% 29.91 in 7.0 mi North 13.8 mph - N/A   Overcast
6:53 PM 55.0 °F - 42.1 °F 62% 29.93 in 10.0 mi North 15.0 mph 23.0 mph N/A   Overcast
7:53 PM 53.1 °F - 41.0 °F 64% 29.94 in 10.0 mi NNW 17.3 mph - N/A   Overcast
8:42 PM 51.8 °F - 35.6 °F 54% 29.97 in 10.0 mi North 19.6 mph 26.5 mph N/A   Mostly Cloudy
8:53 PM 51.1 °F - 35.1 °F 54% 29.96 in 10.0 mi North 17.3 mph - N/A   Mostly Cloudy
9:53 PM 48.0 °F - 28.9 °F 48% 29.99 in 10.0 mi North 18.4 mph 28.8 mph N/A   Overcast
10:53 PM 44.1 °F 36.2 °F 19.9 °F 38% 30.03 in 10.0 mi NNW 18.4 mph 31.1 mph N/A   Scattered Clouds
11:53 PM 42.1 °F 34.5 °F 15.1 °F 34% 30.05 in 10.0 mi North 15.0 mph 32.2 mph N/A   Mostly Cloudy